N8SHA Weather Reports


Display with metric or nautical units.
time (UTC)temp
F
wind
direction
speed
MPH
gust
MPH
rain 1hr
in
rain 24hr
in
rain mn
in
humidity
%
barometer
mb
20260505090730 57 186 4.0 9.0 0.00 0.00 0.00 86 1001.0
20260505090229 57 200 3.0 7.0 0.00 0.00 0.00 85 1001.2
20260505085726 57 187 3.0 7.0 0.00 0.00 0.00 85 1001.1
20260505085224 57 201 4.0 8.0 0.00 0.00 0.00 85 1000.9
20260505084721 57 182 3.0 5.0 0.00 0.00 0.00 84 1000.8
20260505084220 57 176 4.0 9.0 0.00 0.00 0.00 84 1000.8
20260505083716 57 202 1.0 6.0 0.00 0.00 0.00 84 1000.6
20260505083213 58 241 2.0 7.0 0.00 0.00 0.00 83 1000.7
20260505082709 58 188 2.0 9.0 0.00 0.00 0.00 83 1000.7
20260505082207 58 195 2.0 8.0 0.00 0.00 0.00 82 1000.6
20260505081702 58 163 1.0 8.0 0.00 0.00 0.00 82 1000.2
20260505081200 58 190 3.0 6.0 0.00 0.00 0.00 81 1000.0
20260505080657 59 179 3.0 9.0 0.00 0.00 0.00 81 1000.2
20260505080152 59 204 3.0 9.0 0.00 0.00 0.00 80 1000.3
20260505075648 59 173 3.0 7.0 0.00 0.00 0.00 80 1000.3
20260505075146 59 171 5.0 8.0 0.00 0.00 0.00 80 1000.1
20260505074643 59 181 4.0 10.0 0.00 0.00 0.00 79 1000.1
20260505074139 59 146 7.0 9.0 0.00 0.00 0.00 79 1000.1
20260505073637 59 164 5.0 9.0 0.00 0.00 0.00 79 1000.0
20260505073135 59 178 2.0 4.0 0.00 0.00 0.00 79 999.8
20260505072630 59 179 1.0 7.0 0.00 0.00 0.00 79 999.8
20260505072127 59 152 3.0 8.0 0.00 0.00 0.00 79 999.6
20260505071623 59 163 2.0 5.0 0.00 0.00 0.00 79 999.5
20260505071121 59 188 3.0 8.0 0.00 0.00 0.00 79 999.5
20260505070618 59 191 4.0 9.0 0.00 0.00 0.00 79 999.4
20260505070114 59 162 2.0 8.0 0.00 0.00 0.00 80 999.5
20260505065610 59 141 3.0 5.0 0.00 0.00 0.00 82 999.8
20260505065107 59 198 0.0 7.0 0.00 0.00 0.00 82 999.6
20260505064604 59 167 0.0 5.0 0.00 0.00 0.00 82 999.7
20260505064103 59 55 3.0 5.0 0.00 0.00 0.00 81 999.6
20260505063559 59 183 3.0 7.0 0.00 0.00 0.00 81 999.7
20260505063055 59 174 2.0 6.0 0.00 0.00 0.00 81 999.7
20260505062552 59 158 3.0 6.0 0.00 0.00 0.00 81 999.4
20260505062049 59 252 0.0 5.0 0.00 0.00 0.00 81 999.5
20260505061546 60 184 3.0 5.0 0.00 0.00 0.00 81 999.4
20260505061044 60 201 4.0 8.0 0.00 0.00 0.00 77 999.8
20260505060541 60 198 1.0 8.0 0.00 0.00 0.00 77 1000.0
20260505060038 60 267 0.0 6.0 0.00 0.00 0.00 76 999.9
20260505055533 60 106 1.0 10.0 0.00 0.00 0.00 76 1000.2
20260505055030 60 217 2.0 9.0 0.00 0.00 0.00 76 1000.4
20260505054527 60 183 4.0 10.0 0.00 0.00 0.00 75 1000.3
20260505054026 61 203 3.0 7.0 0.00 0.00 0.00 75 1000.2
20260505053522 61 149 4.0 8.0 0.00 0.00 0.00 74 1000.4
20260505053019 61 170 8.0 10.0 0.00 0.00 0.00 74 1000.0
20260505052516 61 195 2.0 10.0 0.00 0.00 0.00 74 999.8
20260505052014 62 199 2.0 7.0 0.00 0.00 0.00 73 999.9
20260505051510 62 170 2.0 8.0 0.00 0.00 0.00 73 999.9
20260505051009 62 180 4.0 10.0 0.00 0.00 0.00 72 999.8
20260505050506 62 188 4.0 8.0 0.00 0.00 0.00 73 999.9
20260505041434 66 214 4.0 12.0 0.00 0.00 0.00 70 999.4
20260505040931 67 225 4.0 20.0 0.00 0.00 0.00 65 999.0
20260505040429 67 169 8.0 13.0 0.00 0.00 0.00 64 998.9
20260505035925 67 189 3.0 10.0 0.00 0.00 0.00 64 998.8
20260505035421 67 189 3.0 11.0 0.00 0.00 0.00 64 999.0
20260505034919 67 150 4.0 9.0 0.00 0.00 0.00 64 998.9
20260505034415 67 191 6.0 8.0 0.00 0.00 0.00 65 999.0
20260505033912 66 170 3.0 10.0 0.00 0.00 0.00 66 998.9
20260505033409 66 217 3.0 11.0 0.00 0.00 0.00 66 998.9
20260505032907 66 195 2.0 13.0 0.00 0.00 0.00 66 998.9
20260505032403 66 172 2.0 9.0 0.00 0.00 0.00 67 999.0
20260505031900 66 191 2.0 8.0 0.00 0.00 0.00 67 998.9
20260505031357 66 154 1.0 9.0 0.00 0.00 0.00 67 998.9
20260505030854 66 175 3.0 6.0 0.00 0.00 0.00 67 999.0
20260505030350 66 157 3.0 6.0 0.00 0.00 0.00 67 999.0
20260505025845 66 186 3.0 10.0 0.00 0.00 0.00 66 999.0
20260505025343 66 227 1.0 9.0 0.00 0.00 0.00 66 999.4
20260505024842 66 212 2.0 8.0 0.00 0.00 0.00 66 999.5
20260505024340 66 183 3.0 9.0 0.00 0.00 0.00 66 999.5
20260505023836 66 178 4.0 10.0 0.00 0.00 0.00 66 999.6
20260505023333 66 169 3.0 11.0 0.00 0.00 0.00 66 999.6
20260505022830 66 172 2.0 9.0 0.00 0.00 0.00 66 999.4
20260505022327 66 202 7.0 12.0 0.00 0.00 0.00 66 999.6
20260505021825 66 181 6.0 10.0 0.00 0.00 0.00 66 999.5
20260505021321 66 232 2.0 7.0 0.00 0.00 0.00 66 999.6
20260505020817 66 220 3.0 8.0 0.00 0.00 0.00 65 999.4
20260505020313 66 183 4.0 9.0 0.00 0.00 0.00 65 999.4
20260505015809 66 199 2.0 9.0 0.00 0.00 0.00 65 999.3
20260505015307 66 184 2.0 8.0 0.00 0.00 0.00 65 999.2
20260505014804 66 175 3.0 10.0 0.00 0.00 0.00 65 999.2
20260505014301 66 193 5.0 19.0 0.00 0.00 0.00 66 999.2
20260505013757 66 193 4.0 10.0 0.00 0.00 0.00 66 999.3
20260505013255 66 237 1.0 9.0 0.00 0.00 0.00 67 999.4
20260505012752 66 186 2.0 8.0 0.00 0.00 0.00 67 999.0
20260505012250 66 179 5.0 8.0 0.00 0.00 0.00 67 999.3
20260505011745 66 198 3.0 9.0 0.00 0.00 0.00 67 999.2
20260505011237 66 201 6.0 11.0 0.00 0.00 0.00 67 999.3
20260505010733 66 180 2.0 10.0 0.00 0.00 0.00 67 998.9
20260505010229 66 173 2.0 7.0 0.00 0.00 0.00 66 998.9
20260505005726 66 171 3.0 6.0 0.00 0.00 0.00 66 999.0
20260505005223 67 175 3.0 5.0 0.00 0.00 0.00 64 999.0
20260505004720 67 239 2.0 5.0 0.00 0.00 0.00 63 998.8
20260505004216 67 210 7.0 8.0 0.00 0.00 0.00 62 998.7
20260505003714 68 196 3.0 5.0 0.00 0.00 0.00 61 998.5
20260505003212 68 188 2.0 7.0 0.00 0.00 0.00 61 998.6
20260505002707 69 192 4.0 8.0 0.00 0.00 0.00 59 998.4
20260505002205 69 203 3.0 8.0 0.00 0.00 0.00 58 998.6
20260505001702 71 180 2.0 13.0 0.00 0.00 0.00 55 998.5
20260505001200 72 197 17.0 23.0 0.00 0.00 0.00 51 998.7
20260505000657 72 169 6.0 8.0 0.00 0.00 0.00 49 998.5
20260505000155 73 89 0.0 4.0 0.00 0.00 0.00 49 998.4
20260504235651 73 198 3.0 5.0 0.00 0.00 0.00 48 998.5
20260504235147 73 322 0.0 4.0 0.00 0.00 0.00 48 998.5
20260504234645 73 141 0.0 5.0 0.00 0.00 0.00 48 998.6
20260504234142 73 124 4.0 6.0 0.00 0.00 0.00 49 998.5
20260504233637 73 232 8.0 10.0 0.00 0.00 0.00 47 998.6
20260504233133 73 184 4.0 11.0 0.00 0.00 0.00 47 998.8
20260504232631 74 165 0.0 6.0 0.00 0.00 0.00 47 998.5
20260504232128 73 171 3.0 8.0 0.00 0.00 0.00 46 998.5
20260504231624 73 179 4.0 9.0 0.00 0.00 0.00 46 998.6
20260504231121 74 212 2.0 6.0 0.00 0.00 0.00 46 998.6
20260504230617 75 151 1.0 7.0 0.00 0.00 0.00 46 998.8
20260504230116 76 236 2.0 6.0 0.00 0.00 0.00 43 998.8
20260504225614 75 180 3.0 11.0 0.00 0.00 0.00 43 998.5
20260504225110 76 181 5.0 9.0 0.00 0.00 0.00 43 998.7
20260504224607 77 192 4.0 7.0 0.00 0.00 0.00 43 998.7
20260504224104 77 335 3.0 4.0 0.00 0.00 0.00 43 998.5
20260504223601 76 230 2.0 5.0 0.00 0.00 0.00 43 998.8
20260504223056 76 219 4.0 7.0 0.00 0.00 0.00 42 998.8
20260504222553 76 186 2.0 7.0 0.00 0.00 0.00 42 999.0
20260504222050 75 159 2.0 11.0 0.00 0.00 0.00 42 999.3
20260504221548 75 196 5.0 9.0 0.00 0.00 0.00 42 999.2
20260504221044 75 170 1.0 10.0 0.00 0.00 0.00 42 999.4
20260504220541 74 196 3.0 15.0 0.00 0.00 0.00 41 999.3
20260504220038 75 182 5.0 17.0 0.00 0.00 0.00 40 999.6
20260504215534 75 190 3.0 11.0 0.00 0.00 0.00 40 999.6
20260504215032 75 193 6.0 13.0 0.00 0.00 0.00 39 999.5
20260504214528 76 144 0.0 7.0 0.00 0.00 0.00 39 999.4
20260504214024 77 210 4.0 9.0 0.00 0.00 0.00 37 999.7
20260504213521 78 176 8.0 13.0 0.00 0.00 0.00 37 999.5
20260504213018 78 183 6.0 11.0 0.00 0.00 0.00 36 999.6
20260504212514 78 273 4.0 11.0 0.00 0.00 0.00 36 999.6
20260504212012 78 153 5.0 11.0 0.00 0.00 0.00 35 999.6
20260504211508 78 176 1.0 8.0 0.00 0.00 0.00 35 999.6
20260504211006 77 186 6.0 16.0 0.00 0.00 0.00 35 999.7
20260504210502 78 225 4.0 12.0 0.00 0.00 0.00 35 999.7
20260504205959 77 191 5.0 13.0 0.00 0.00 0.00 33 999.8
20260504205457 78 190 5.0 10.0 0.00 0.00 0.00 33 999.7
20260504204955 78 238 1.0 8.0 0.00 0.00 0.00 35 999.7
20260504204453 78 212 7.0 13.0 0.00 0.00 0.00 31 999.8
20260504203952 78 200 3.0 14.0 0.00 0.00 0.00 32 999.9
20260504203450 78 175 6.0 12.0 0.00 0.00 0.00 31 1000.0
20260504202945 77 268 1.0 7.0 0.00 0.00 0.00 33 1000.0
20260504202441 76 217 3.0 13.0 0.00 0.00 0.00 31 1000.2
20260504201938 77 165 3.0 8.0 0.00 0.00 0.00 31 999.9
20260504201435 77 180 3.0 12.0 0.00 0.00 0.00 31 1000.1
20260504200933 77 175 5.0 11.0 0.00 0.00 0.00 30 1000.2
20260504200430 77 184 6.0 15.0 0.00 0.00 0.00 30 1000.2
20260504195926 78 172 4.0 10.0 0.00 0.00 0.00 31 1000.3
20260504195422 78 208 4.0 7.0 0.00 0.00 0.00 31 1000.2
20260504194919 79 189 6.0 11.0 0.00 0.00 0.00 31 1000.3
20260504194415 78 189 4.0 13.0 0.00 0.00 0.00 30 1000.4
20260504193911 79 183 7.0 14.0 0.00 0.00 0.00 29 1000.5
20260504193408 78 203 3.0 14.0 0.00 0.00 0.00 30 1000.6
20260504192907 78 309 3.0 8.0 0.00 0.00 0.00 30 1000.5
20260504192404 78 191 2.0 12.0 0.00 0.00 0.00 31 1000.5
20260504191903 79 191 3.0 12.0 0.00 0.00 0.00 30 1000.5
20260504191400 78 201 2.0 8.0 0.00 0.00 0.00 29 1000.7
20260504190855 77 313 3.0 7.0 0.00 0.00 0.00 31 1000.7
20260504190351 77 144 2.0 13.0 0.00 0.00 0.00 29 1000.9
20260504185848 78 36 2.0 5.0 0.00 0.00 0.00 29 1000.7
20260504185345 77 192 4.0 11.0 0.00 0.00 0.00 29 1000.7
20260504184841 78 250 3.0 9.0 0.00 0.00 0.00 31 1000.9
20260504184337 78 205 5.0 12.0 0.00 0.00 0.00 30 1001.0
20260504183833 77 281 4.0 10.0 0.00 0.00 0.00 30 1000.9
20260504183331 77 161 5.0 10.0 0.00 0.00 0.00 30 1000.8
20260504182828 77 200 3.0 11.0 0.00 0.00 0.00 29 1001.1
20260504182326 77 209 3.0 8.0 0.00 0.00 0.00 30 1001.1
20260504181822 77 299 3.0 11.0 0.00 0.00 0.00 31 1001.2
20260504181320 77 209 6.0 12.0 0.00 0.00 0.00 28 1001.0
20260504180819 76 20 3.0 9.0 0.00 0.00 0.00 32 1001.0
20260504180317 76 180 16.0 16.0 0.00 0.00 0.00 29 1001.2
20260504175815 77 211 8.0 13.0 0.00 0.00 0.00 29 1001.3
20260504175311 75 173 5.0 15.0 0.00 0.00 0.00 31 1001.5
20260504174810 76 239 5.0 15.0 0.00 0.00 0.00 30 1001.3
20260504174306 76 217 3.0 12.0 0.00 0.00 0.00 31 1001.4
20260504173803 76 177 7.0 14.0 0.00 0.00 0.00 29 1001.6
20260504173300 77 179 3.0 7.0 0.00 0.00 0.00 31 1001.5
20260504172756 76 185 5.0 9.0 0.00 0.00 0.00 33 1001.9
20260504172254 75 218 3.0 13.0 0.00 0.00 0.00 32 1002.0
20260504171749 76 143 2.0 15.0 0.00 0.00 0.00 33 1002.0
20260504171247 76 141 3.0 13.0 0.00 0.00 0.00 34 1001.8
20260504170743 75 195 3.0 13.0 0.00 0.00 0.00 33 1001.9
20260504170241 75 195 5.0 11.0 0.00 0.00 0.00 34 1002.2
20260504160159 72 171 5.0 11.0 0.00 0.00 0.00 39 1003.0
20260504151127 67 174 3.0 7.0 0.00 0.00 0.00 52 1003.7
20260504150624 68 204 2.0 6.0 0.00 0.00 0.00 53 1003.7
20260504150121 66 338 0.0 7.0 0.00 0.00 0.00 57 1003.7
20260504141050 61 181 3.0 5.0 0.00 0.00 0.00 63 1003.9
20260504140546 60 178 2.0 7.0 0.00 0.00 0.00 64 1003.9
20260504130510 55 175 5.0 9.0 0.00 0.00 0.00 72 1004.4
20260504110358 48 176 3.0 10.0 0.00 0.00 0.00 80 1004.4
20260504100315 48 198 5.0 8.0 0.00 0.00 0.00 80 1004.3